Location: Unspecified
(33.6682°S, 0.0000°E)
Time: 01:51:19
(UTC+00:00)

S-56A Canister/Altair - Pass Details

Date: 01 July 2019
Orbit: 633 x 2499 km, 38.9° (Epoch: 18 August)

Event Time Altitude Azimuth Distance (km) Brightness Sun altitude
Exits shadow 04:08:33 65° 178° (S) 1,645 8.9 -35.9°
Maximum altitude 04:08:44 65° 172° (S) 1,654 9.0 -35.9°
Drops below altitude 10° 04:20:32 10° 91° (E) 4,544 12.3 -33.4°
Sets 04:24:46 0° 87° (E) 5,776 13.1 -32.6°
